Location: Alafon
(8.4500°N, 4.2333°E)
Time: 00:46:07
(UTC+00:00)

Explorer 7 - Pass Details

Date: 02 August 2021
Orbit: 484 x 676 km, 50.3° (Epoch: 22 September)

Event Time Altitude Azimuth Distance (km) Brightness Sun altitude
Rises 12:06:53 0° 333° (NNW) 2,859 10.6 79.9°
Reaches altitude 10° 12:09:12 10° 339° (NNW) 1,986 10.0 79.6°
Maximum altitude 12:13:36 45° 52° (NE) 879 8.7 79.1°
Drops below altitude 10° 12:18:11 10° 125° (SE) 2,075 9.8 78.5°
Sets 12:20:39 0° 131° (SE) 3,003 10.5 78.1°
